When you browse on this site, cookies collect data to enhance your experience and personalize the content and advertising you see.
Visit our Privacy Policy to learn more. By continuing to use the site, you agree to this use of cookies and data.
  • In Switzerland
  • List of Countries
  • For 7 days
  • Water Temperature
  • Satellite Maps
  • Weather Map
  • Weather Widgets
  • user-avatar
    Login

    Hourly Weather Rawson

    Today, 24 May, Friday

    Time Temperature Precipitation Wind Pressure Humidity
    00:00 +13°C° 0 mm 3 mps 757 mmHg 41%
    01:00 +13°C° 0 mm 3 mps 757 mmHg 39%
    02:00 +13°C° 0 mm 3 mps 756 mmHg 41%
    03:00 +13°C° 0 mm 3 mps 756 mmHg 41%
    04:00 +13°C° 0 mm 3 mps 755 mmHg 40%
    05:00 +13°C° 0 mm 3 mps 755 mmHg 40%
    06:00 +12°C° 0 mm 3 mps 755 mmHg 42%
    07:00 +13°C° 0 mm 2 mps 754 mmHg 43%
    08:00 +13°C° 0 mm 2 mps 753 mmHg 44%
    09:00 +14°C° 0 mm 2 mps 753 mmHg 40%
    10:00 +16°C° 0 mm 3 mps 753 mmHg 36%
    11:00 +17°C° 0 mm 3 mps 753 mmHg 32%
    12:00 +18°C° 0 mm 4 mps 752 mmHg 28%
    13:00 +19°C° 0 mm 6 mps 752 mmHg 23%
    14:00 +20°C° 0 mm 7 mps 752 mmHg 19%
    15:00 +19°C° 0 mm 6 mps 752 mmHg 21%
    16:00 +19°C° 0 mm 6 mps 752 mmHg 24%
    17:00 +17°C° 0 mm 5 mps 751 mmHg 27%
    18:00 +16°C° 0 mm 5 mps 752 mmHg 31%
    19:00 +16°C° 0 mm 5 mps 752 mmHg 35%
    20:00 +15°C° 0 mm 5 mps 752 mmHg 39%
    21:00 +15°C° 0 mm 6 mps 753 mmHg 42%
    22:00 +14°C° 0 mm 6 mps 753 mmHg 45%
    23:00 +14°C° 0 mm 6 mps 753 mmHg 48%

    Tomorrow, 25 May, Saturday

    Time Temperature Precipitation Wind Pressure Humidity
    00:00 +14°C° 0 mm 6 mps 753 mmHg 50%
    01:00 +13°C° 0 mm 6 mps 753 mmHg 52%
    02:00 +13°C° 0 mm 6 mps 753 mmHg 53%
    03:00 +12°C° 0 mm 5 mps 753 mmHg 55%
    04:00 +12°C° 0 mm 5 mps 753 mmHg 57%
    05:00 +12°C° 0 mm 4 mps 753 mmHg 58%
    06:00 +11°C° 0 mm 4 mps 753 mmHg 59%
    07:00 +11°C° 0 mm 4 mps 753 mmHg 60%
    08:00 +11°C° 0 mm 3 mps 754 mmHg 61%
    09:00 +13°C° 0 mm 3 mps 753 mmHg 57%
    10:00 +14°C° 0 mm 3 mps 753 mmHg 52%
    11:00 +17°C° 0 mm 4 mps 753 mmHg 47%
    12:00 +17°C° 0 mm 3 mps 753 mmHg 45%
    13:00 +18°C° 0 mm 3 mps 752 mmHg 42%
    14:00 +19°C° 0 mm 3 mps 752 mmHg 40%
    15:00 +18°C° 0 mm 3 mps 752 mmHg 43%
    16:00 +17°C° 0 mm 3 mps 752 mmHg 45%
    17:00 +16°C° 0 mm 3 mps 752 mmHg 48%
    18:00 +15°C° 0 mm 4 mps 752 mmHg 49%
    19:00 +14°C° 0 mm 4 mps 753 mmHg 51%
    20:00 +14°C° 0 mm 4 mps 753 mmHg 52%
    21:00 +13°C° 0 mm 4 mps 754 mmHg 50%
    22:00 +12°C° 0 mm 4 mps 754 mmHg 49%
    23:00 +11°C° 0 mm 4 mps 755 mmHg 47%

    Day after tomorrow, 26 May, Sunday

    Time Temperature Precipitation Wind Pressure Humidity
    00:00 +9°C° 0 mm 5 mps 755 mmHg 46%
    01:00 +9°C° 0 mm 5 mps 756 mmHg 46%
    02:00 +8°C° 0 mm 6 mps 756 mmHg 46%
    03:00 +8°C° 0 mm 6 mps 757 mmHg 48%
    04:00 +7°C° 0 mm 6 mps 757 mmHg 50%
    05:00 +7°C° 0 mm 5 mps 757 mmHg 52%
    06:00 +7°C° 0 mm 5 mps 758 mmHg 53%
    07:00 +6°C° 0 mm 5 mps 758 mmHg 55%
    08:00 +6°C° 0 mm 4 mps 759 mmHg 56%
    09:00 +7°C° 0 mm 4 mps 759 mmHg 53%
    10:00 +8°C° 0 mm 4 mps 760 mmHg 49%
    11:00 +10°C° 0 mm 3 mps 760 mmHg 45%
    12:00 +10°C° 0 mm 3 mps 760 mmHg 43%
    13:00 +12°C° 0 mm 2 mps 760 mmHg 41%
    14:00 +12°C° 0 mm 1 mps 759 mmHg 38%
    15:00 +11°C° 0 mm 1 mps 759 mmHg 40%
    16:00 +11°C° 0 mm 1 mps 759 mmHg 42%
    17:00 +9°C° 0 mm 0 mps 759 mmHg 43%
    18:00 +10°C° 0 mm 1 mps 759 mmHg 44%
    19:00 +9°C° 0 mm 2 mps 759 mmHg 44%
    20:00 +9°C° 0 mm 2 mps 760 mmHg 44%
    21:00 +9°C° 0 mm 3 mps 759 mmHg 45%
    22:00 +8°C° 0 mm 4 mps 759 mmHg 46%
    23:00 +8°C° 0 mm 4 mps 759 mmHg 48%

    27 May, Monday

    Time Temperature Precipitation Wind Pressure Humidity
    00:00 +8°C° 0 mm 4 mps 759 mmHg 50%
    01:00 +8°C° 0 mm 4 mps 758 mmHg 53%
    02:00 +8°C° 0 mm 5 mps 758 mmHg 56%
    03:00 +7°C° 0 mm 4 mps 758 mmHg 56%
    04:00 +7°C° 0 mm 4 mps 757 mmHg 56%
    05:00 +7°C° 0 mm 4 mps 757 mmHg 56%
    06:00 +7°C° 0 mm 4 mps 757 mmHg 55%
    07:00 +7°C° 0 mm 4 mps 757 mmHg 54%
    08:00 +6°C° 0 mm 4 mps 757 mmHg 53%
    09:00 +8°C° 0 mm 4 mps 757 mmHg 48%
    10:00 +9°C° 0 mm 5 mps 757 mmHg 42%
    11:00 +12°C° 0 mm 5 mps 757 mmHg 37%
    12:00 +12°C° 0 mm 5 mps 756 mmHg 35%
    13:00 +13°C° 0 mm 5 mps 756 mmHg 33%
    14:00 +14°C° 0 mm 5 mps 756 mmHg 31%
    15:00 +13°C° 0 mm 5 mps 756 mmHg 34%
    16:00 +12°C° 0 mm 4 mps 755 mmHg 37%
    17:00 +12°C° 0 mm 4 mps 755 mmHg 40%
    18:00 +11°C° 0 mm 4 mps 756 mmHg 43%
    19:00 +11°C° 0 mm 4 mps 756 mmHg 46%
    20:00 +10°C° 0 mm 4 mps 756 mmHg 49%
    21:00 +10°C° 0 mm 4 mps 756 mmHg 49%
    22:00 +8°C° 0 mm 5 mps 756 mmHg 50%
    23:00 +8°C° 0 mm 5 mps 757 mmHg 50%

    28 May, Tuesday

    Time Temperature Precipitation Wind Pressure Humidity
    00:00 +7°C° 0 mm 5 mps 757 mmHg 51%
    01:00 +7°C° 0 mm 5 mps 757 mmHg 51%
    02:00 +6°C° 0 mm 5 mps 757 mmHg 51%
    03:00 +6°C° 0 mm 5 mps 757 mmHg 52%
    04:00 +6°C° 0 mm 5 mps 758 mmHg 54%
    05:00 +6°C° 0 mm 4 mps 758 mmHg 55%
    06:00 +6°C° 0 mm 4 mps 758 mmHg 57%
    07:00 +5°C° 0 mm 4 mps 759 mmHg 58%
    08:00 +5°C° 0 mm 4 mps 759 mmHg 59%
    09:00 +6°C° 0 mm 4 mps 759 mmHg 56%
    10:00 +7°C° 0 mm 4 mps 760 mmHg 52%
    11:00 +8°C° 0 mm 4 mps 760 mmHg 49%
    12:00 +10°C° 0 mm 4 mps 760 mmHg 48%
    13:00 +10°C° 0 mm 4 mps 760 mmHg 47%
    14:00 +10°C° 0 mm 4 mps 760 mmHg 46%
    15:00 +10°C° 0 mm 4 mps 760 mmHg 50%
    16:00 +8°C° 0 mm 4 mps 761 mmHg 53%
    17:00 +8°C° 0 mm 4 mps 761 mmHg 57%
    18:00 +7°C° 0 mm 4 mps 761 mmHg 60%
    19:00 +7°C° 0 mm 4 mps 762 mmHg 64%
    20:00 +6°C° 0 mm 4 mps 762 mmHg 67%
    21:00 +6°C° 0 mm 4 mps 762 mmHg 67%
    22:00 +6°C° 0 mm 4 mps 762 mmHg 66%
    23:00 +7°C° 0 mm 3 mps 763 mmHg 66%

    29 May, Wednesday

    Time Temperature Precipitation Wind Pressure Humidity
    00:00 +5°C° 0 mm 3 mps 762 mmHg 67%
    01:00 +5°C° 0 mm 3 mps 762 mmHg 67%
    02:00 +6°C° 0 mm 2 mps 762 mmHg 67%
    03:00 +6°C° 0 mm 2 mps 762 mmHg 68%
    04:00 +6°C° 0 mm 2 mps 762 mmHg 68%
    05:00 +6°C° 0 mm 2 mps 762 mmHg 69%
    06:00 +7°C° 0 mm 2 mps 762 mmHg 69%
    07:00 +7°C° 0 mm 2 mps 762 mmHg 69%
    08:00 +7°C° 0 mm 2 mps 762 mmHg 69%
    09:00 +7°C° 0 mm 2 mps 762 mmHg 67%
    10:00 +8°C° 0 mm 2 mps 762 mmHg 65%
    11:00 +8°C° 0 mm 2 mps 762 mmHg 63%
    12:00 +8°C° 0.1 mm 2 mps 761 mmHg 63%
    13:00 +8°C° 0.1 mm 2 mps 761 mmHg 63%
    14:00 +9°C° 0.1 mm 2 mps 761 mmHg 63%
    15:00 +8°C° 0 mm 2 mps 761 mmHg 65%
    16:00 +8°C° 0 mm 2 mps 761 mmHg 67%
    17:00 +8°C° 0 mm 2 mps 761 mmHg 68%
    18:00 +8°C° 0 mm 2 mps 761 mmHg 69%
    19:00 +8°C° 0 mm 2 mps 761 mmHg 71%
    20:00 +8°C° 0 mm 2 mps 761 mmHg 72%
    21:00 +8°C° 0 mm 2 mps 761 mmHg 71%
    22:00 +8°C° 0 mm 2 mps 761 mmHg 69%
    23:00 +8°C° 0 mm 3 mps 760 mmHg 68%
    Show more